FW3691 Weather Reports


time (UTC)temp
F
wind
direction
speed
knots
gust
knots
rain 1hr
in
rain 24hr
in
rain mn
in
humidity
%
barometer
mb
20260506024554 50 40 4.3 12.2 0.00 0.00 0.00 79 1012.0
20260506023104 50 16 7.0 12.2 0.00 0.00 0.00 79 1011.8
20260506021608 50 10 6.1 12.2 0.00 0.00 0.00 79 1011.6
20260506020046 50 38 7.0 12.2 0.00 0.00 0.00 79 1011.0
20260506014544 50 25 7.0 13.0 0.00 0.00 0.00 79 1010.7
20260506013044 50 10 4.3 11.3 0.00 0.00 0.00 79 1010.2
20260506011540 50 32 7.0 14.8 0.00 0.00 0.00 78 1010.2
20260506010037 50 20 5.2 13.0 0.00 0.00 0.00 78 1010.1
20260506004535 51 60 5.2 10.4 0.00 0.00 0.00 77 1010.0
20260506003033 51 28 5.2 12.2 0.00 0.00 0.00 76 1010.2
20260506001535 51 103 7.0 12.2 0.00 0.00 0.00 76 1009.3
20260506000029 51 46 7.0 14.8 0.00 0.00 0.00 75 1009.6
20260505234527 51 44 7.0 15.6 0.00 0.00 0.00 75 1009.7
20260505233024 51 66 6.1 13.0 0.00 0.00 0.00 75 1009.5
20260505231536 51 47 7.8 13.9 0.00 0.00 0.00 74 1009.5
20260505230025 52 38 7.8 13.9 0.00 0.00 0.00 74 1009.1
20260505224518 52 20 7.0 18.2 0.00 0.00 0.00 74 1008.5
20260505223018 52 53 6.1 14.8 0.00 0.00 0.00 74 1008.7
20260505221516 52 44 10.4 16.5 0.00 0.00 0.00 74 1007.9
20260505220012 53 15 8.7 15.6 0.00 0.00 0.00 75 1008.0
20260505214511 53 59 7.0 15.6 0.00 0.00 0.00 76 1007.8
20260505213015 53 25 8.7 14.8 0.00 0.00 0.00 75 1008.3
20260505211510 54 28 6.1 16.5 0.00 0.00 0.00 76 1008.1
20260505210004 54 59 7.8 16.5 0.00 0.00 0.00 78 1007.4
20260505204501 54 38 6.1 11.3 0.00 0.00 0.00 80 1007.7
20260505203121 54 19 9.6 19.1 0.00 0.00 0.00 80 1007.9
20260505201603 55 36 4.3 12.2 0.00 0.00 0.00 81 1007.3
20260505200057 55 32 7.0 13.9 0.00 0.00 0.00 79 1007.4
20260505194554 55 40 7.0 14.8 0.00 0.00 0.00 80 1007.2
20260505193051 55 14 7.8 13.0 0.00 0.00 0.00 81 1007.3
20260505191600 55 52 7.8 14.8 0.00 0.00 0.00 82 1006.8
20260505190047 55 43 6.1 15.6 0.00 0.00 0.00 83 1006.8
20260505184546 55 34 6.1 13.9 0.00 0.00 0.00 83 1006.7
20260505183044 56 52 7.8 15.6 0.00 0.00 0.00 83 1006.6
20260505181546 56 45 6.1 13.0 0.00 0.00 0.00 84 1006.9
20260505180040 56 73 7.8 16.5 0.00 0.00 0.00 84 1006.4
20260505174542 56 355 8.7 13.0 0.00 0.00 0.00 84 1005.8
20260505173033 56 65 6.1 12.2 0.00 0.00 0.00 85 1005.8
20260505171532 56 355 5.2 13.0 0.00 0.00 0.00 85 1005.9
20260505170026 57 44 6.1 14.8 0.00 0.00 0.00 85 1005.4
20260505164523 58 53 7.8 14.8 0.00 0.00 0.00 84 1005.1
20260505163021 59 32 6.1 13.0 0.00 0.00 0.00 84 1005.0
20260505161515 60 38 5.2 14.8 0.00 0.00 0.00 85 1004.7
20260505153005 68 5 3.5 8.7 0.00 0.00 0.00 78 1004.1
20260505151502 71 57 0.9 3.5 0.00 0.00 0.00 79 1003.7
20260505124547 66 72 0.0 4.3 0.00 0.00 0.00 82 1003.7
20260505123045 66 46 1.7 7.8 0.00 0.00 0.00 82 1003.5
20260505121555 65 154 2.6 7.8 0.00 0.00 0.00 82 1003.4
20260505120044 65 70 1.7 5.2 0.00 0.00 0.00 83 1003.2
20260505114541 65 55 2.6 9.6 0.00 0.00 0.00 82 1003.1
20260505113042 65 58 2.6 9.6 0.00 0.00 0.00 82 1003.0
20260505111543 65 77 4.3 10.4 0.00 0.00 0.00 83 1002.7
20260505101541 65 83 2.6 8.7 0.00 0.00 0.00 83 1002.0
20260505100036 65 64 1.7 7.8 0.00 0.00 0.00 83 1001.8
20260505094537 65 83 0.9 6.1 0.00 0.00 0.00 83 1001.8
20260505093040 65 64 2.6 7.8 0.00 0.00 0.00 82 1001.9
20260505091532 65 72 0.0 6.1 0.00 0.00 0.00 82 1001.9
20260505090033 66 80 1.7 6.1 0.00 0.00 0.00 81 1002.1
20260505084528 66 65 0.9 7.0 0.00 0.00 0.00 79 1002.1
20260505083028 67 63 1.7 5.2 0.00 0.00 0.00 78 1002.2
20260505081531 67 58 0.9 4.3 0.00 0.00 0.00 78 1002.3
20260505080027 67 101 1.7 4.3 0.00 0.00 0.00 78 1002.3
20260505074526 67 65 1.7 5.2 0.00 0.00 0.00 79 1002.6
20260505073035 67 53 1.7 4.3 0.00 0.00 0.00 78 1002.9
20260505071525 67 58 2.6 4.3 0.00 0.00 0.00 78 1002.9
20260505070024 66 43 1.7 4.3 0.00 0.00 0.00 79 1002.9
20260505064525 66 36 0.9 3.5 0.00 0.00 0.00 79 1003.3
20260505063025 66 29 1.7 2.6 0.00 0.00 0.00 79 1003.3
20260505061519 67 144 0.0 4.3 0.00 0.00 0.00 76 1002.5
20260505060026 68 86 1.7 6.1 0.00 0.00 0.00 74 1002.1
20260505054530 68 149 1.7 4.3 0.00 0.00 0.00 73 1002.3
20260505053012 68 169 1.7 7.0 0.00 0.00 0.00 73 1002.7
20260505051510 68 165 1.7 7.0 0.00 0.00 0.00 72 1002.6
20260505041504 68 159 3.5 10.4 0.00 0.00 0.00 70 1002.5
20260505040004 69 192 3.5 9.6 0.00 0.00 0.00 69 1002.7
20260505034501 69 102 3.5 8.7 0.00 0.00 0.00 68 1002.9
20260505033115 70 98 3.5 8.7 0.00 0.00 0.00 66 1003.3
20260505031557 70 163 1.7 7.0 0.00 0.00 0.00 66 1003.5
20260505030057 70 153 2.6 7.0 0.00 0.00 0.00 66 1003.9